RH
62 70 74 85 91 86 39 32 34 38 39 48 53 60 50 34 30 20 20 31 23 29 35 33 30 35 37 28 26 30 45 40 26 28 26 26 31 24 24 24 24 24 24 23 24
83 90 93 94 88 76 39 34 33 35 36 39 54 54 53 47 26 17 29 26 24 26 34 37 32 33 32 34 34 40 53 35 29 26 32 35 36 34 29 30 28 25 24 24 24
98 95 90 89 91 64 34 34 33 34 32 37 35 33 43 43 29 44 29 25 26 26 32 30 32 33 31 31 35 39 41 33 28 31 35 38 39 34 34 39 29 29 28 26 24
89 84 83 81 60 36 34 34 34 32 33 35 31 48 46 47 58 44 27 21 24 33 31 35 33 33 30 34 36 30 34 34 34 33 34 40 34 37 33 31 28 28 28 26 25
45 42 43 41 38 37 35 33 30 29 28 26 34 49 48 36 55 32 21 16 21 22 18 30 30 32 33 28 29 39 39 34 30 30 34 33 35 37 33 23 22 23 23 24 22
45 48 48 45 42 37 30 29 34 36 38 38 42 46 48 43 34 26 28 18 13 25 20 26 34 33 37 26 30 34 36 37 33 34 35 38 35 30 24 22 21 20 20 22 23
31 30 34 39 41 42 43 42 38 40 43 41 37 36 25 32 31 29 26 30 21 20 26 26 35 43 39 36 38 35 45 41 35 33 32 27 33 39 24 22 21 21 26 27 27
28 28 26 24 30 30 29 26 25 27 33 22 29 20 20 28 28 26 20 36 34 26 24 25 34 44 44 35 36 42 38 56 34 31 30 28 43 33 21 22 22 25 27 28 27
18 19 21 21 21 24 21 20 20 19 20 21 28 32 29 33 24 28 28 22 26 33 40 41 52 42 38 43 44 41 42 34 41 28 28 31 39 31 21 23 25 28 29 30 28
16 17 15 16 19 21 21 21 20 17 20 25 30 32 34 33 24 29 36 30 33 39 41 42 40 47 42 40 44 43 44 39 44 35 29 34 35 31 24 26 26 31 31 32 30
11 17 15 15 17 18 18 22 34 30 25 38 35 36 36 27 33 42 38 37 36 37 36 32 45 45 38 34 34 38 44 53 42 34 34 35 39 32 29 28 31 32 34 35 32
17 18 15 18 20 20 19 40 41 27 30 33 34 33 33 37 42 41 27 33 32 34 32 48 44 35 32 33 36 40 46 49 35 28 35 38 39 33 34 28 32 34 38 40 34
24 20 18 22 24 23 26 24 30 37 35 28 29 32 33 41 40 37 31 40 36 38 39 42 37 28 33 39 40 38 39 37 42 42 40 41 36 24 21 30 36 40 42 37 42
38 26 23 22 24 27 26 22 22 28 77 38 30 34 35 40 44 41 33 35 36 38 37 38 29 31 37 39 34 40 34 37 45 55 54 38 53 36 17 27 37 40 42 45 36
39 33 25 23 28 29 24 19 19 40 36 29 32 28 34 34 35 42 36 32 43 42 36 36 34 37 34 34 34 35 39 46 47 53 54 49 53 40 20 23 38 43 44 46 47
36 38 29 31 32 28 24 22 31 60 24 33 29 32 33 35 36 31 37 34 35 35 36 39 36 33 34 40 41 39 48 48 50 58 81 52 42 38 22 21 37 43 44 46 47
24 34 28 30 28 22 23 44 65 59 34 37 32 35 34 35 32 29 30 31 33 40 44 39 33 34 39 44 39 45 66 82 78 90 80 36 39 47 21 34 36 39 40 46 48
18 28 30 30 25 21 26 56 54 32 39 31 34 36 35 25 31 26 30 38 27 26 46 62 60 36 34 34 39 47 58 83 75 90 82 51 50 42 26 31 35 30 24 20 21
16 23 29 30 38 29 52 78 62 42 36 44 42 34 33 27 26 30 27 30 29 28 41 45 49 30 30 34 39 44 73 48 71 71 86 67 44 21 26 30 26 23 20 24 27
16 30 39 32 38 52 65 66 44 38 40 41 43 32 39 33 33 40 33 24 31 28 29 32 56 34 37 36 43 46 46 70 88 88 83 72 65 53 23 28 29 27 24 25 28
20 41 48 34 46 53 85 66 46 41 40 45 45 41 36 35 34 42 32 27 25 30 30 33 51 54 40 51 58 61 60 53 69 77 86 92 77 42 27 27 27 25 27 29 29
24 39 44 38 56 65 74 49 49 44 43 44 42 42 36 37 41 45 35 28 27 29 37 39 54 80 65 41 34 36 41 55 86 80 78 78 72 39 34 26 29 32 33 34 33
38 50 59 41 81 79 56 50 48 44 43 44 43 38 35 39 53 48 35 31 28 35 57 49 80 94 68 58 47 45 40 40 71 74 85 78 78 30 33 35 34 39 36 36 36
51 75 58 52 56 60 63 52 55 44 46 43 44 39 42 47 45 50 42 40 31 35 41 46 76 80 79 57 72 72 66 58 60 84 76 71 57 46 42 42 40 40 34 36 36
62 72 68 64 70 63 59 57 58 55 50 44 48 48 48 56 56 58 53 51 39 34 45 52 79 71 66 61 62 69 71 66 76 71 85 65 64 51 46 46 43 39 39 40 42
58 66 59 65 57 62 62 60 58 54 51 58 54 56 53 64 56 68 68 64 69 57 57 57 83 90 99 73 74 79 70 69 70 70 71 67 69 48 45 38 49 48 48 50 52
70 81 74 61 62 67 66 57 61 56 55 54 54 60 65 63 61 61 63 63 61 69 70 74 84 97 87 73 80 80 59 57 60 66 68 83 64 57 67 61 54 53 55 57 56
Wind_Speed
25 24 19 12 21 17 17 16 18 20 23 24 24 22 19 18 10 10 13 10 8 7 7 8 9 7 5 4 3 1 4 2 3 5 4 10 8 5 11 11 13 9 18 21 22
23 22 21 20 18 16 16 17 18 20 21 20 21 19 17 13 13 19 14 9 6 5 5 7 4 4 2 3 3 3 3 2 3 3 4 13 11 18 9 20 22 22 22 19 22
22 21 19 16 16 15 15 17 16 17 17 18 17 12 10 8 7 13 11 7 6 6 6 6 6 5 1 3 3 4 3 2 2 7 12 10 14 9 11 6 14 20 27 27 28
19 18 17 16 15 15 16 15 14 14 15 14 11 11 12 4 4 8 7 5 5 4 2 6 3 3 2 2 2 2 4 6 4 7 8 7 12 8 19 23 26 27 27 26 25
20 18 16 15 14 15 14 13 13 12 11 9 8 8 8 11 8 7 7 6 3 4 5 7 8 3 3 2 2 3 4 9 11 18 18 16 15 11 27 22 15 20 23 25 27
17 16 14 13 12 12 11 10 10 9 8 9 11 8 7 7 8 7 9 8 5 5 8 4 3 3 2 1 2 3 9 17 11 9 9 6 7 5 13 11 17 21 25 26 27
13 12 11 10 10 10 11 10 9 9 10 10 9 9 11 6 7 7 6 6 7 5 5 5 4 2 1 3 3 5 5 8 3 3 3 7 8 6 5 16 25 24 15 25 26
6 7 7 7 7 8 8 8 8 9 9 7 7 7 7 8 7 7 8 2 4 6 4 4 2 1 2 5 2 2 2 5 4 0 3 7 9 9 18 23 26 15 21 22 22
5 5 4 5 7 7 7 6 9 9 7 7 7 4 3 4 7 9 12 6 3 5 6 5 2 1 1 2 4 6 3 4 9 5 4 4 10 10 25 23 24 12 19 21 22
5 4 4 3 3 5 7 11 9 6 6 6 7 1 3 3 5 11 13 7 5 3 2 1 1 2 4 5 2 3 4 4 7 5 2 8 18 10 28 20 12 8 16 16 17
9 6 4 4 4 6 7 5 2 4 9 7 5 4 3 5 4 10 10 7 4 3 2 2 5 2 1 3 1 2 4 9 9 9 7 4 14 18 21 18 3 8 11 13 10
12 9 6 6 4 9 8 1 2 8 7 8 8 7 5 3 2 8 11 4 4 3 5 5 3 1 3 3 3 4 7 8 9 4 9 9 13 12 9 4 2 3 8 12 8
15 11 6 7 6 6 6 4 9 4 3 4 4 3 5 3 3 8 11 2 3 4 4 2 1 2 4 5 5 4 5 3 6 7 5 5 7 5 3 5 4 2 9 11 8
19 13 8 2 2 3 4 10 8 2 4 5 2 3 7 2 2 5 8 5 1 3 3 1 0 3 3 3 1 5 1 2 6 6 3 5 4 5 2 3 2 6 9 12 11
22 20 11 9 1 2 6 10 4 1 5 4 3 4 5 3 4 5 9 6 3 4 5 2 2 3 2 1 2 8 7 9 4 3 4 3 3 7 3 2 4 5 6 9 11
15 22 16 9 9 7 10 10 3 6 2 5 3 4 3 3 2 6 5 6 2 2 1 4 1 2 2 5 4 7 7 2 3 2 2 4 4 5 3 3 1 2 4 6 9
18 17 19 18 10 9 10 1 5 6 2 7 4 4 5 3 3 4 4 5 4 6 5 3 2 1 1 5 4 6 5 4 5 4 4 3 1 8 2 3 4 2 5 7 8
17 10 18 16 10 6 3 5 8 2 2 2 3 5 1 4 2 2 3 2 4 3 1 2 6 2 1 2 2 3 3 4 4 2 5 5 5 5 5 2 3 5 5 9 12
17 9 15 16 9 3 2 6 5 3 1 4 6 2 2 2 1 1 4 4 1 3 2 3 5 1 1 1 3 2 2 3 1 3 2 4 6 3 5 6 7 10 11 13 15
16 7 10 15 9 4 4 5 5 3 1 2 1 1 2 3 1 2 4 0 3 2 1 1 5 3 2 1 1 2 2 2 2 2 4 5 6 4 3 3 5 7 9 14 16
10 4 8 13 8 4 4 2 2 2 1 2 2 2 2 2 2 2 2 0 2 3 1 2 4 6 2 3 5 1 1 1 2 4 4 2 6 5 6 4 4 3 9 10 12
6 3 9 10 3 3 2 1 1 2 0 1 0 1 2 3 3 3 2 1 4 3 2 0 3 4 9 3 2 2 3 4 4 4 4 1 10 7 8 6 9 8 7 6 9
8 3 6 9 3 1 2 3 2 4 3 3 2 3 1 2 3 3 2 4 6 5 5 3 1 4 9 4 2 1 3 2 2 2 6 5 6 2 7 10 22 21 23 4 6
6 3 1 4 4 3 2 2 2 3 2 3 2 1 1 3 5 5 2 5 9 8 9 6 4 8 8 6 1 5 7 6 4 6 8 17 20 25 20 18 21 30 18 6 10
5 3 3 3 3 3 2 2 2 2 2 4 2 5 3 3 4 5 1 1 5 6 7 5 6 6 10 12 11 15 20 18 16 17 13 24 18 26 19 16 16 7 13 19 18
3 3 3 5 6 0 3 3 4 2 2 3 4 3 1 3 4 9 3 1 6 3 6 2 4 1 3 11 15 18 21 20 19 20 21 23 23 24 27 6 11 16 15 14 18
2 1 2 3 3 2 3 2 2 1 5 8 2 2 4 7 6 11 13 15 15 6 7 6 4 1 8 3 6 8 11 8 6 7 7 7 5 6 6 9 13 11 13 17 23
Wind_Direction
105 104 101 94 102 105 102 105 105 111 113 114 109 106 99 77 60 75 64 43 59 74 89 78 64 78 63 52 79 94 66 260 310 14 322 359 6 345 315 314 317 283 290 294 305
95 95 96 105 110 102 100 106 111 113 117 117 113 107 101 84 73 67 50 45 51 57 92 85 89 81 91 36 41 72 103 277 10 3 330 328 352 328 324 309 291 290 291 294 294
102 106 109 111 106 100 105 103 111 115 118 120 109 93 102 105 81 28 34 47 52 57 62 64 68 41 40 46 35 6 197 351 322 4 353 322 321 323 316 290 282 295 298 298 296
96 109 113 110 106 108 106 105 109 110 116 119 92 86 75 92 84 9 14 29 66 61 95 81 26 355 348 107 92 7 307 323 306 322 316 297 298 292 271 275 300 297 295 294 291
77 81 85 93 100 99 100 105 106 106 111 104 82 96 70 61 66 18 9 4 26 21 58 98 65 32 49 55 356 186 296 308 288 293 289 286 275 272 287 305 309 303 298 296 295
78 78 81 85 86 89 93 95 89 86 93 93 90 82 75 78 52 22 19 17 30 30 53 84 97 89 310 293 162 252 285 284 294 285 259 276 276 314 283 325 325 318 305 309 308
80 79 77 77 80 83 85 86 78 80 97 102 86 66 82 82 66 31 5 25 29 39 46 50 116 90 335 290 262 284 317 317 286 239 224 331 307 208 279 321 317 315 330 327 320
56 63 76 92 100 98 94 88 83 90 104 94 95 71 78 70 50 16 23 36 353 18 24 38 83 160 232 293 294 276 63 7 321 241 240 65 273 262 301 316 309 317 332 331 325
65 67 78 103 108 117 99 96 96 94 111 99 84 73 79 48 25 20 18 13 33 33 40 44 14 305 292 3 9 14 328 321 322 276 256 148 273 262 298 304 309 329 332 333 329
58 75 83 86 144 153 99 110 98 112 99 93 89 104 53 8 7 22 20 34 22 360 335 347 258 45 28 51 229 280 317 300 280 282 265 261 269 284 296 303 280 338 336 335 333
58 60 72 78 117 156 149 136 89 72 69 56 58 73 18 347 34 17 4 349 342 349 35 305 69 88 130 66 122 271 260 268 275 281 335 256 288 287 293 311 281 335 335 332 324
57 69 81 51 121 155 167 202 116 127 92 69 65 47 33 43 46 349 358 25 14 5 357 17 59 81 16 20 344 291 285 285 293 335 340 300 290 283 282 243 182 338 348 339 315
36 34 50 67 87 166 189 153 142 121 75 47 48 28 20 35 38 355 7 12 49 45 19 120 312 1 35 347 335 277 237 295 273 313 276 289 296 331 48 119 121 38 5 351 322
33 36 43 99 66 134 155 159 150 122 78 328 37 8 2 26 50 15 12 26 70 45 16 3 236 44 352 285 54 306 141 305 306 7 297 66 284 312 132 99 54 12 1 357 345
29 26 32 50 98 148 150 162 180 324 44 308 346 354 7 51 319 1 21 34 49 336 59 287 12 21 307 244 89 250 326 285 251 260 345 320 73 271 224 32 25 2 348 349 355
24 27 30 39 66 112 137 156 183 42 294 355 349 348 12 9 24 358 6 26 25 9 151 259 102 173 268 299 225 295 304 295 110 121 356 235 128 278 224 170 190 320 350 338 344
20 26 27 32 59 109 119 99 35 88 281 324 340 5 357 315 3 23 357 16 38 25 6 333 284 173 342 344 15 10 12 338 355 4 233 228 13 252 250 166 174 255 354 343 334
13 23 29 32 40 119 5 52 66 302 19 343 315 311 278 12 306 329 360 352 36 74 355 65 335 189 196 147 242 301 115 141 254 290 283 321 242 276 183 175 85 43 38 12 2
359 12 31 25 33 58 343 51 185 196 256 340 322 309 261 269 266 218 200 156 115 55 107 27 285 135 273 79 115 340 60 169 228 286 27 256 285 3 91 22 29 21 30 25 16
353 10 26 14 4 360 75 172 180 166 208 191 287 258 316 321 280 10 195 204 135 101 69 278 308 241 194 119 262 196 226 60 358 336 285 296 292 234 199 315 353 16 30 24 17
356 11 5 360 360 18 111 204 105 145 206 196 260 291 311 344 326 274 222 326 117 174 90 110 114 294 16 206 188 293 263 205 152 160 205 281 266 218 174 195 17 47 38 29 15
9 28 357 360 55 66 98 32 318 166 313 299 338 285 281 325 293 275 241 88 124 124 98 160 150 264 236 313 328 276 240 159 129 276 237 171 269 258 204 147 124 61 7 20 29
351 333 353 3 103 15 238 186 213 175 203 182 264 219 48 286 302 261 116 172 160 155 161 180 278 338 326 359 324 42 254 232 108 25 210 250 260 357 17 317 313 328 329 348 54
352 1 357 35 69 112 61 292 181 214 231 184 223 153 257 246 234 283 216 222 207 198 178 168 188 188 223 225 139 273 270 244 212 244 257 240 273 278 290 296 301 319 325 13 18
14 20 354 312 3 23 341 277 279 285 234 208 269 218 211 262 317 244 129 314 219 229 192 160 219 226 252 272 279 266 263 266 252 252 245 269 267 274 283 283 286 326 14 6 14
34 13 342 294 297 359 219 236 209 253 185 258 207 321 292 236 241 297 349 233 232 168 162 206 267 89 283 257 255 271 269 260 255 257 256 260 268 273 284 16 14 11 24 31 1
107 130 314 282 312 114 242 309 80 99 268 243 17 342 292 267 279 286 273 255 246 228 194 179 183 337 280 269 301 290 255 231 216 217 206 222 273 18 16 359 346 6 15 6 356